Torna al catalogo

IRIDE-MS2-HEO-13

AttivoScienzaSSO
NORAD 68985·PAYLOAD·🇮🇹 Italy

Lanciato May 3, 2026 da Vandenberg Space Force Base

Loading…

Prossimi Passaggi (prossime 24 ore)

TLE

AggiornatoSource: Space-Track

Epoca: Sep 14, 2026, 11:46 UTC

1 68985U 26100F   26257.49052942  .00002052  00000-0  20960-3 0  9991
2 68985  97.7241 153.2238 0002639 146.5150 213.6236 14.91666771 20018

Traccia IRIDE-MS2-HEO-13 in tempo reale con AllMySat

Download on the App Store